OBJECT C, 60456

Orbit data source: Space-Track

You're viewing an Uncataloged Satellite

Recently launched and/or uncataloged satellites may have evolving metadata. Metadata may include but not limited to: Owner, Maufacturer, Bus, Motor, and Mission.

OBJECT C, 60456 is a satellite owned by ISRO (IN) in LEO that was launched on Fri, 16 Aug 2024 UTC launched from the Sirharikota (SRI). Unknown objects in Earth's orbit typically refer to objects detected orbiting the Earth but have not yet been identified or cataloged. These objects could be anything from previously untracked satellites, spent rocket stages, debris from satellite collisions, or even natural meteoroids temporarily captured by Earth's gravity.

Not visible in the next 10 days
OBJECT C details
Identifier
60456, 2024-147C
Orbit
LEO
Last TLE update9 hours ago
Origin
Flag of INISRO (IN / IND)
ManufacturerISRO
MissionSpacecraft
Bus & MotorSS-3, Unknown motor
Mass~400 kg wet, ~400 kg dry
Launch date (UTC)
2024-08-16 (4 months ago)
Launch vehicleUnknown
Launch site
Sirharikota (SRI)
Object typeUnknown
Shape & HBRUnknown
Radar Cross SectionLarge (>1 m²)

Expand to show TLE details & history

TLE from 9 hours ago
0 OBJECT C
1 60456U 24147C   24346.90854169  .00086755  00000-0  47214-3 0  9992
2 60456  36.9226 247.2501 0060147 232.7940 126.7326 15.76072629 18468
Epoch: 2024-12-11T21:48Z
Definitive object data (Epoch: 2024-12-11T21:48:18.002Z)
Latitude-0.00001°
Longitude-160.92139°
Altitude364.993 km
Speed7.679 km/s
True Right ascension16h 29m 00s
True Declination0° 00' 00"
Sunlit
Object was in daylight at TLE epoch
Visualization TLE readout
Latitude-2.75872°
Longitude-167.09874°
Altitude360.41 km
Speed7.684 km/s
Apparent Right ascension16h 36m 03s
Apparent Declination-20° 56' 52"
Sunlit
Object is in daylight
Visualization observer readout
Local Sidereal Time05:19:50
Azimuth29.443° NE
Elevation-68.855°
Doppler factor1
Orbital elements
Apogee altitude385.027 km
Perigee altitude304.157 km
Semi-major axis6,722.729 km
Eccentricity0.0060147
Inclination36.9226°
RAAN247.2501°
Arg. of periapsis232.794°
True anomaly127.28249°
Mean anomaly126.7326°
Eccentric anomaly127.0078°
Mean motion3.93754 °/min
BSTAR0.00047214
Orbital period91.43 mins
Loading maneuver chart data...
Loading historical data...
Loading historical data...
Loading historical data...
Loading historical data...
Loading historical data...
Loading historical data...
Loading historical data...
Other satellites on launch #147 in the year 2024 (2024-08-16 UTC)

OBJECT C Visibility forecast

Observer location: undefined°, undefined

OBJECT C is not visible in the next 10 days
Span
Click to sort rows by Start time (UTC) header in descending order
Start Az.
Max El. time (UTC)
Max El. Az.
Max El.
End time (UTC)
End Az.
|